Simultaneous Nadir Overpasses (SNOs) Predictions

Prediction of SNOs between LANDSAT-8 and TERRA Satellite Orbit:

Table of predicted SNOs for the next 14.0 days since TLE Epoch: 4/7/2023
Index Date (LANDSAT-8) Time (LANDSAT-8) Lat,Lon (LANDSAT-8) SZA (LANDSAT-8 ) Date (TERRA) Time (TERRA) Lat,Lon (TERRA) SZA (TERRA ) Distance(km) Time Diff (sec)
1 04/20/2023 11:04:57 81.05, 101.49 78.32 04/20/2023 11:06:07 81.04, 101.61 78.38 2.28 70
2 04/20/2023 11:54:23 -81.04, -90.71 101.68 04/20/2023 11:55:29 -81.03, -90.67 101.63 0.77 66
3 04/20/2023 12:43:48 81.00, 77.45 78.40 04/20/2023 12:44:50 80.99, 77.53 78.45 1.52 62
4 04/20/2023 13:33:13 -80.96,-114.40 101.54 04/20/2023 13:34:11 -80.96,-114.41 101.50 0.04 58
5 04/20/2023 14:22:39 80.95, 53.40 78.48 04/20/2023 14:23:33 80.95, 53.44 78.52 0.75 54
6 04/20/2023 15:12:04 -80.91,-138.46 101.46 04/20/2023 15:12:54 -80.91,-138.50 101.43 0.77 50
7 04/20/2023 16:01:30 80.90, 29.34 78.56 04/20/2023 16:02:16 80.90, 29.34 78.59 0.03 46
8 04/20/2023 16:50:54 -80.83,-162.19 101.32 04/20/2023 16:51:36 -80.84,-162.27 101.30 1.53 42
9 04/20/2023 17:40:20 80.82, 5.62 78.70 04/20/2023 17:40:58 80.82, 5.58 78.72 0.78 38
10 04/20/2023 18:29:44 -80.75, 174.07 101.18 04/20/2023 18:30:18 -80.76, 173.96 101.18 2.30 34
11 04/20/2023 19:19:11 80.76, -18.45 78.79 04/20/2023 19:19:41 80.77, -18.53 78.79 1.55 30
12 04/20/2023 20:08:34 -80.67, 150.32 101.04 04/20/2023 20:09:00 -80.68, 150.16 101.05 3.06 26
13 04/20/2023 20:58:01 80.68, -42.20 78.92 04/20/2023 20:58:23 80.69, -42.32 78.92 2.31 22
14 04/20/2023 21:47:29 -80.73, 124.90 101.18 04/20/2023 21:47:46 -80.72, 125.05 101.15 2.92 17
15 04/20/2023 22:36:51 80.59, -65.97 79.06 04/20/2023 22:37:05 80.61, -66.12 79.05 3.08 14
16 04/20/2023 23:26:19 -80.64, 101.14 101.04 04/20/2023 23:26:28 -80.63, 101.25 101.02 2.16 9
17 04/21/2023 00:15:44 80.60, -90.72 79.03 04/21/2023 00:15:49 80.58, -90.58 79.06 2.94 5
18 04/21/2023 01:05:09 -80.55, 77.36 100.91 04/21/2023 01:05:10 -80.55, 77.43 100.89 1.40 1
19 04/21/2023 01:54:34 80.51,-114.51 79.17 04/21/2023 01:54:31 80.50,-114.40 79.19 2.18 3
20 04/21/2023 02:43:58 -80.43, 53.88 100.71 04/21/2023 02:43:51 -80.43, 53.91 100.71 0.64 7
21 04/21/2023 03:33:24 80.42,-138.31 79.31 04/21/2023 03:33:13 80.41,-138.24 79.31 1.42 11
22 04/21/2023 04:22:47 -80.31, 30.36 100.52 04/21/2023 04:22:32 -80.31, 30.36 100.53 0.13 15



Historial Predications of SNOs between LANDSAT-8 and TERRA
